This is the latest recevied weather packets stored in our database for station/object DJ0JJ-11. If no packets are shown the sender has not sent any weather packets the latest 10 day(s).
| Time | Temp. | Humidity | Pressure | Rain* | Wind** | Luminosity | Snow |
|---|---|---|---|---|---|---|---|
| 1787895331 | 20° C | 100% | 1013 hPa | - | - | - | - |
| 1787894431 | 19.44° C | 100% | 1013.2 hPa | - | - | - | - |
| 1787893531 | 20° C | 100% | 1013.5 hPa | - | - | - | - |
| 1787892631 | 20° C | 100% | 1013.7 hPa | - | - | - | - |
| 1787891730 | 20.56° C | 100% | 1013.4 hPa | - | - | - | - |
| 1787890830 | 20° C | 100% | 1011.9 hPa | - | - | - | - |
| 1787889930 | 20° C | 100% | 1012.1 hPa | - | - | - | - |
| 1787889030 | 20° C | 100% | 1012.4 hPa | - | - | - | - |
| 1787888129 | 20.56° C | 100% | 1012.7 hPa | - | - | - | - |
| 1787887229 | 20.56° C | 100% | 1014.1 hPa | - | - | - | - |
| 1787886329 | 20.56° C | 100% | 1012.3 hPa | - | - | - | - |
| 1787885429 | 20.56° C | 99% | 1012.5 hPa | - | - | - | - |
| 1787884529 | 20.56° C | 100% | 1012.1 hPa | - | - | - | - |
| 1787883628 | 21.11° C | 90% | 1012.2 hPa | - | - | - | - |
| 1787882728 | 21.11° C | 87% | 1012.3 hPa | - | - | - | - |
| 1787881831 | 21.11° C | 88% | 1012.9 hPa | - | - | - | - |
| 1787880931 | 21.67° C | 88% | 1012.9 hPa | - | - | - | - |
| 1787880031 | 22.22° C | 84% | 1012.9 hPa | - | - | - | - |
| 1787879131 | 22.22° C | 84% | 1013 hPa | - | - | - | - |
| 1787878231 | 22.22° C | 83% | 1012.9 hPa | - | - | - | - |
| 1787877331 | 22.22° C | 81% | 1012.7 hPa | - | - | - | - |
| 1787876431 | 22.22° C | 80% | 1012.7 hPa | - | - | - | - |
| 1787875531 | 22.78° C | 78% | 1013 hPa | - | - | - | - |
| 1787874631 | 22.78° C | 76% | 1013 hPa | - | - | - | - |
| 1787873730 | 23.33° C | 76% | 1012.7 hPa | - | - | - | - |
* Rain since midnight (hover to see other rain measurements)
** Current wind speed in m/s (hover to see current wind gust speed)